Date String (YYYY-MM-DD hh:mm:ss) UTC,Instrument flags,absolute air pressure of the measurement (hPa),sample flow rate (lpm),inlet stack bypass flow (lpm),air temperature of the measurement (°C),ambient temperature measured by the external sensor (°C),aerosol sample conditioner tube jacket temperature (°C),OPC LED temperature (°C),internal box temperature (°C),relative humidity of the measurement (%),span deviation,mass concentration of particles derived from Lorenz-Mie calculation of OPC scattering (μg/m³),mass concentration of particles derived from Lorenz-Mie calculation of OPC scattering (μg/m³),mass concentration of particles derived from Lorenz-Mie calculation of OPC scattering (μg/m³)
DateTimeUTC,F1_M11,P_M11,Q1_M11,Q2_M11,T1_M11,T2_M11,T3_M11,T4_M11,T5_M11,U1_M11,ZSPAN_M11,X2_M11,X0_M11,X1_M11
2023-09-10 21:00:00,SystemResetWarning,0837.2,4.99,000.00,028.6,027.6,000.0,036.9,030.2,33.5,-000.5,0017.11,0032.09,0015.10
2023-09-10 21:01:00,SystemResetWarning,0837.2,4.99,000.00,028.6,027.6,000.0,036.9,030.3,33.4,-000.5,0017.09,0031.54,0015.03
2023-09-10 21:02:00,SystemResetWarning,0837.2,5.01,000.00,028.6,027.7,000.0,037.0,030.3,33.3,-000.3,0017.01,0031.49,0014.96
2023-09-10 21:03:00,SystemResetWarning,0837.2,5.01,000.00,028.7,027.8,000.0,037.0,030.3,33.4,-000.5,0016.93,0031.19,0014.91
2023-09-10 21:04:00,SystemResetWarning,0837.2,4.99,000.00,028.7,027.8,000.0,037.0,030.4,33.4,-000.6,0016.93,0031.03,0014.88
2023-09-10 21:05:00,SystemResetWarning,0837.2,4.99,000.00,028.8,027.9,000.0,037.0,030.4,32.7,-000.7,0016.90,0030.90,0014.85
2023-09-10 21:06:00,SystemResetWarning,0837.2,5.00,000.00,028.8,027.9,000.0,037.1,030.5,32.5,-000.7,0016.85,0030.94,0014.82
2023-09-10 21:07:00,SystemResetWarning,0837.1,5.00,000.00,028.8,027.2,000.0,037.0,030.4,32.7,-000.8,0016.82,0029.98,0014.78
2023-09-10 21:08:00,SystemResetWarning,0837.0,4.99,000.00,028.8,025.7,000.0,037.0,030.1,32.8,-000.9,0016.83,0030.26,0014.77
2023-09-10 21:09:00,SystemResetWarning,0837.0,5.01,000.00,028.7,025.1,000.0,036.9,030.0,32.9,-000.8,0016.83,0030.20,0014.76
2023-09-10 21:10:00,SystemResetWarning,0836.9,5.01,000.00,028.6,025.2,000.0,036.9,029.8,33.1,-000.8,0016.78,0029.30,0014.76
2023-09-10 21:11:00,SystemResetWarning,0837.0,4.99,000.00,028.5,025.5,000.0,036.9,029.8,33.3,-000.9,0016.83,0029.48,0014.78
2023-09-10 21:12:00,SystemResetWarning,0837.1,4.99,000.00,028.5,025.8,000.0,036.9,029.8,33.4,-001.0,0016.83,0029.73,0014.78
2023-09-10 21:13:00,SystemResetWarning,0837.1,5.00,000.00,028.5,026.2,000.0,036.9,029.9,33.4,-001.2,0016.80,0029.32,0014.75
2023-09-10 21:14:00,SystemResetWarning,0837.1,5.00,000.00,028.5,026.5,000.0,036.9,030.0,33.5,-001.0,0016.75,0029.56,0014.72
2023-09-10 21:15:00,SystemResetWarning,0837.1,5.01,000.00,028.5,026.7,000.0,036.9,030.0,33.4,-000.9,0016.73,0029.55,0014.69
2023-09-10 21:16:00,SystemResetWarning,0837.2,4.99,000.00,028.5,026.9,000.0,036.9,030.1,33.4,-000.9,0016.62,0028.85,0014.66
2023-09-10 21:17:00,SystemResetWarning,0837.1,4.99,000.00,028.6,027.1,000.0,036.9,030.1,33.2,-001.0,0016.55,0028.46,0014.64
2023-09-10 21:18:00,SystemResetWarning,0837.1,5.00,000.00,028.6,027.3,000.0,037.0,030.2,33.4,-001.0,0016.50,0028.31,0014.59
2023-09-10 21:19:00,SystemResetWarning,0837.1,5.00,000.00,028.6,027.4,000.0,037.0,030.2,33.5,-001.0,0016.37,0028.01,0014.55
2023-09-10 21:20:00,SystemResetWarning,0837.1,5.00,000.00,028.6,027.5,000.0,037.0,030.3,33.4,-000.8,0016.29,0027.76,0014.52
2023-09-10 21:21:00,SystemResetWarning,0837.1,5.01,000.00,028.7,027.6,000.0,037.0,030.3,33.4,-000.8,0016.19,0027.17,0014.44
2023-09-10 21:22:00,SystemResetWarning,0837.1,5.01,000.00,028.7,027.7,000.0,037.0,030.4,33.0,-000.8,0016.14,0028.09,0014.40
2023-09-10 21:23:00,SystemResetWarning,0837.0,5.01,000.00,028.7,027.8,000.0,037.1,030.4,32.8,-000.6,0016.02,0028.03,0014.35
2023-09-10 21:24:00,SystemResetWarning,0837.0,4.99,000.00,028.8,027.2,000.0,037.0,030.3,32.7,-000.4,0015.94,0028.55,0014.33
2023-09-10 21:25:00,SystemResetWarning,0836.9,4.99,000.00,028.7,025.6,000.0,037.0,030.0,32.9,-000.3,0015.94,0029.26,0014.35
2023-09-10 21:26:00,SystemResetWarning,0837.0,5.01,000.00,028.7,025.0,000.0,036.9,029.9,33.0,-000.3,0015.91,0029.06,0014.31
2023-09-10 21:27:00,SystemResetWarning,0837.0,5.01,000.00,028.6,025.1,000.0,036.9,029.8,33.4,-000.1,0015.93,0030.07,0014.29
2023-09-10 21:28:00,SystemResetWarning,0837.0,5.00,000.00,028.5,025.4,000.0,036.9,029.8,33.4,-000.1,0015.92,0031.37,0014.27
2023-09-10 21:29:00,SystemResetWarning,0837.0,5.00,000.00,028.5,025.8,000.0,036.9,029.8,33.4,-000.3,0015.83,0031.72,0014.22
2023-09-10 21:30:00,SystemResetWarning,0837.0,5.01,000.00,028.5,026.1,000.0,036.9,029.9,33.2,-000.4,0015.84,0031.49,0014.22
2023-09-10 21:31:00,SystemResetWarning,0837.0,5.00,000.00,028.5,026.4,000.0,036.9,029.9,33.1,-000.5,0015.88,0031.50,0014.22
2023-09-10 21:32:00,SystemResetWarning,0836.9,5.00,000.00,028.5,026.7,000.0,036.9,030.0,33.2,-000.4,0015.96,0031.99,0014.23
2023-09-10 21:33:00,SystemResetWarning,0836.9,5.00,000.00,028.5,026.9,000.0,036.9,030.0,33.4,-000.4,0015.95,0031.94,0014.24
2023-09-10 21:34:00,SystemResetWarning,0836.9,5.00,000.00,028.5,027.1,000.0,036.9,030.1,33.4,-000.5,0015.96,0031.90,0014.26
2023-09-10 21:35:00,SystemResetWarning,0836.9,4.99,000.00,028.6,027.2,000.0,036.9,030.2,33.2,-000.6,0016.07,0032.12,0014.30
2023-09-10 21:36:00,SystemResetWarning,0836.9,4.99,000.00,028.6,027.4,000.0,036.9,030.2,33.1,-000.6,0016.09,0031.50,0014.29
2023-09-10 21:37:00,SystemResetWarning,0836.9,5.00,000.00,028.6,027.5,000.0,037.0,030.2,33.0,-000.6,0016.05,0031.72,0014.29
2023-09-10 21:38:00,SystemResetWarning,0836.9,5.00,000.00,028.7,027.6,000.0,037.0,030.3,33.1,-000.7,0016.02,0030.68,0014.28
2023-09-10 21:39:00,SystemResetWarning,0836.9,5.00,000.00,028.7,027.7,000.0,037.0,030.3,33.0,-000.7,0016.06,0029.54,0014.29
2023-09-10 21:40:00,SystemResetWarning,0836.9,5.00,000.00,028.7,027.8,000.0,037.0,030.4,33.0,-000.5,0016.13,0029.29,0014.32
2023-09-10 21:41:00,SystemResetWarning,0836.9,4.99,000.00,028.8,027.3,000.0,037.0,030.4,32.8,-000.4,0016.04,0029.77,0014.26
2023-09-10 21:42:00,SystemResetWarning,0836.8,5.00,000.00,028.7,025.6,000.0,036.9,030.1,33.0,-000.3,0015.90,0029.74,0014.17
2023-09-10 21:43:00,SystemResetWarning,0836.9,5.00,000.00,028.7,025.0,000.0,036.9,030.0,33.2,-000.4,0015.82,0030.72,0014.11
2023-09-10 21:44:00,SystemResetWarning,0836.8,5.01,000.00,028.6,025.0,000.0,036.9,029.9,33.4,-000.5,0015.73,0030.81,0014.04
2023-09-10 21:45:00,SystemResetWarning,0836.8,5.01,000.00,028.5,025.3,000.0,036.9,029.8,33.7,-000.5,0015.73,0030.63,0014.01
2023-09-10 21:46:00,SystemResetWarning,0836.8,4.99,000.00,028.4,025.7,000.0,036.9,029.8,33.7,-000.6,0015.66,0030.25,0013.95
2023-09-10 21:47:00,SystemResetWarning,0836.9,4.99,000.00,028.4,026.0,000.0,036.9,029.8,33.8,-000.7,0015.59,0029.56,0013.91
2023-09-10 21:48:00,SystemResetWarning,0837.0,5.01,000.00,028.4,026.4,000.0,036.9,029.9,33.9,-000.9,0015.55,0028.91,0013.86
2023-09-10 21:49:00,SystemResetWarning,0837.0,5.01,000.00,028.5,026.6,000.0,036.9,030.0,33.7,-000.9,0015.51,0028.79,0013.84
2023-09-10 21:50:00,SystemResetWarning,0836.9,5.00,000.00,028.5,026.9,000.0,036.9,030.0,33.5,-000.7,0015.46,0028.72,0013.83
2023-09-10 21:51:00,SystemResetWarning,0836.9,5.00,000.00,028.5,027.0,000.0,036.9,030.1,33.5,-000.7,0015.41,0028.79,0013.79
2023-09-10 21:52:00,SystemResetWarning,0836.9,5.00,000.00,028.5,027.2,000.0,036.9,030.1,33.6,-000.5,0015.46,0028.90,0013.81
2023-09-10 21:53:00,SystemResetWarning,0837.0,5.00,000.00,028.6,027.4,000.0,036.9,030.2,33.6,-000.4,0015.51,0029.56,0013.86
2023-09-10 21:54:00,SystemResetWarning,0837.0,5.00,000.00,028.6,027.5,000.0,036.9,030.2,33.5,-000.4,0015.50,0028.29,0013.90
2023-09-10 21:55:00,SystemResetWarning,0837.1,5.00,000.00,028.6,027.6,000.0,037.0,030.3,33.5,-000.3,0015.59,0027.56,0013.96
2023-09-10 21:56:00,SystemResetWarning,0837.1,4.99,000.00,028.7,027.7,000.0,037.0,030.3,33.5,-000.4,0015.66,0027.43,0014.01
2023-09-10 21:57:00,SystemResetWarning,0837.2,4.99,000.00,028.7,027.7,000.0,037.0,030.4,33.4,-000.4,0015.67,0027.59,0014.03
2023-09-10 21:58:00,SystemResetWarning,0837.2,4.99,000.00,028.7,026.5,000.0,036.9,030.2,33.4,-000.2,0015.65,0027.32,0014.04
2023-09-10 21:59:00,SystemResetWarning,0837.1,5.00,000.00,028.6,024.7,000.0,036.8,029.8,33.5,-000.1,0015.66,0027.12,0014.07
